Regional Weather Roundup
Issued by NWS

Home | Current Version | Previous Version | Text Only | Print | Product List | Glossary On
Versions: 1 2 3 4 5 6 7 8 9 10 11 12 13 14 15 16 17 18 19 20 21 22 23 24 25 26 27 28 29 30 31 32 33 34 35 36 37 38 39 40 41 42 43 44 45 46 47 48 49 50
000
ASUS45 KPSR 222310
RWRAZ

ARIZONA HOURLY REGIONAL WEATHER ROUNDUP
NATIONAL WEATHER SERVICE PHOENIX AZ
400 PM MST FRI SEP 22 2017

NOTE: FAIR INDICATES FEW OR NO CLOUDS BELOW 12,000 FEET WITH NO
SIGNIFICANT WEATHER AND/OR OBSTRUCTIONS TO VISIBILITY.

AZZ001>003-036-230000-
NORTHWEST ARIZONA

CITY           SKY/WX    TMP DP  RH WIND       PRES   REMARKS
BULLHEAD CITY  SUNNY     82  19   9 S6        29.69F
KINGMAN        SUNNY     73  18  12 SW16      29.80F
$$

AZZ004>008-015-016-018-230000-
NORTH CENTRAL ARIZONA

CITY           SKY/WX    TMP DP  RH WIND       PRES   REMARKS
GRAND CANYON   SUNNY     65  14  14 SW17G35   29.89F
WILLIAMS       SUNNY     64  16  15 SW18G30   29.90S
PRESCOTT       SUNNY     69  18  14 S15G24    29.86F
FLAGSTAFF      MOSUNNY   61  30  31 SW23G32   29.94S
PAYSON           N/A     70  36  28 SW13G21   29.90S
PAGE           SUNNY     79  19  10 S16       29.70F
$$

AZZ009>014-017-230000-
NORTHEAST ARIZONA

CITY           SKY/WX    TMP DP  RH WIND       PRES   REMARKS
WINSLOW        SUNNY     77  30  17 S28G39    29.83F
SAINT JOHNS    SUNNY     78  35  21 SW20G30   29.87F
WINDOW ROCK    SUNNY     75  26  16 S18G32    29.93S
SHOW LOW       MOSUNNY   72  34  25 MISG      29.93S
$$

AZZ540-542>544-546-548-230000-
GREATER PHOENIX AREA

CITY           SKY/WX    TMP DP  RH WIND       PRES   REMARKS
PHOENIX        MOSUNNY   87  48  25 NW12      29.67F
BUCKEYE        SUNNY     86  34  15 SW10G21   29.70F
GLENDALE       MOSUNNY   88  39  18 SW10      29.70F
LUKE AFB       SUNNY     86  36  16 SW8       29.67F
DEER VALLEY    SUNNY     84  47  27 W12       29.70F
SCOTTSDALE     SUNNY     85  48  27 W8        29.71F
MESA-FALCON    MOSUNNY   88  48  25 SW10G17   29.69F
MESA-GATEWAY   MOSUNNY   86  50  28 W12       29.70F
CHANDLER       MOSUNNY   88  48  25 SW13      29.68F
$$

AZZ539-553-230000-
SOUTHWEST MARICOPA COUNTY AND PINAL COUNTY

CITY           SKY/WX    TMP DP  RH WIND       PRES   REMARKS
CASA GRANDE    NOT AVBL
GILA BEND      MOSUNNY   86  39  18 W10       29.66F
$$

AZZ503-504-507>509-230000-
SOUTHEAST ARIZONA

CITY           SKY/WX    TMP DP  RH WIND       PRES   REMARKS
TUCSON         PTSUNNY   88  43  20 SW14      29.77F
DAVIS-MONTHAN  CLOUDY    87  44  21 SW13G18   29.75F
RYAN FIELD     SUNNY     90  37  15 MISG      29.75F
NOGALES        MOSUNNY   86  49  27 S14G22    29.84F
SIERRA VISTA   SUNNY     83  47  29 SW18G25   29.90F
DOUGLAS        MOSUNNY   88  42  20 SW21G26   29.84F
SAFFORD        MOSUNNY   90  45  21 NW14      29.73F
$$

AZZ532-230000-
SOUTHWEST ARIZONA

CITY           SKY/WX    TMP DP  RH WIND       PRES   REMARKS
YUMA           SUNNY     84  28  13 W9        29.69F
$$

CAZ041-043-047-048-061-525>527-560>570-230000-
SOUTHERN CALIFORNIA

CITY           SKY/WX    TMP DP  RH WIND       PRES   REMARKS
DOWNTOWN L.A.  SUNNY     72  50  45 W8        29.81F
L.A. AIRPORT   MOSUNNY   70  59  68 W16       29.82F
SAN DIEGO      MOSUNNY   71  56  58 W12G20    29.84F
BURBANK        SUNNY     72  46  39 S12       29.80F
ONTARIO        MOSUNNY   73  43  33 SW12G18   29.80F
RIVERSIDE      SUNNY     74  45  35 W14       29.80F
PALM SPRINGS   SUNNY     84  36  18 NW15      29.72F
EL CENTRO NAS  SUNNY     85  31  14 NW8       29.71F
IMPERIAL       SUNNY     85  38  18 NW6       29.68F
BLYTHE         SUNNY     84  26  12 S10       29.70F
NEEDLES        SUNNY     84  23  10 E10       29.70F
$$

NVZ020-UTZ003-230000-
SOUTHERN NEVADA-UTAH

CITY           SKY/WX    TMP DP  RH WIND       PRES   REMARKS
LAS VEGAS      MOSUNNY   74  25  16 VRB6      29.76F
SALT LAKE CITY CLOUDY    52  39  61 NW12      29.93R
$$

NMZ009-TXZ055-230000-
NEW MEXICO-WEST TEXAS

CITY           SKY/WX    TMP DP  RH WIND       PRES   REMARKS
ALBUQUERQUE    CLOUDY    83  35  18 SW21G36   29.86S
EL PASO        MOSUNNY   94  41  16 S12       29.82F
$$


........................KEY........................
SKY/WX - SKY CONDITION/WEATHER
TMP    - TEMPERATURE IN FAHRENHEIT
DP     - DEW POINT IN FAHRENHEIT
RH     - RELATIVE HUMIDITY IN PERCENT
WIND   - DIRECTION AND SPEED IN MILES PER HOUR (MPH)
VRB    - VARIABLE WIND DIRECTION
PRES   - MEAN SEA LEVEL PRESSURE IN INCHES OF MERCURY
         F - FALLING PRESSURE   R - RISING PRESSURE
         S - STEADY PRESSURE
VSB    - VISIBILITY IN MILES
HX     - HEAT INDEX IN FAHRENHEIT
WCI    - WIND CHILL INDEX IN FAHRENHEIT
TC     - TEMPERATURE IN CELSIUS WHICH IS ALSO KNOWN AS
         TEMPERATURE IN CENTIGRADE
AFB    - AIR FORCE BASE
         LUKE AFB IS LUKE AIR FORCE BASE
         DAVIS-MONTHAN IS DAVIS-MONTHAN AIR FORCE BASE
NAS    - NAVAL AIR STATION
         EL CENTRO NAS IS EL CENTRO NAVAL AIR STATION
N/A    - NOT AVAILABLE




USA.gov is the U.S. government's official web portal to all federal, state and local government web resources and services.